Brainerd, MN

5:18 AM CST on December 10, 2019 (GMT -0600)
Brainerd-Crow Wing County Regional

Weather History for KBRD - November, 2019

Change the Weather History Date:

Thursday, November 14, 2019

  Actual Average Record
Temperature  
Mean Temperature 25 °F 31 °F  
Max Temperature 38 °F 39 °F 62 °F (1939)
Min Temperature 12 °F 23 °F -5 °F (1959)
Degree Days  
Heating Degree Days 40 34  
Month to date heating degree days 570 421  
Since 1 July heating degree days 1356 1323  
Cooling Degree Days 0 0  
Month to date cooling degree days 0 0  
Year to date cooling degree days 485 422  
Moisture  
Dew Point 15 °F    
Average Humidity 64    
Maximum Humidity 77    
Minimum Humidity 51    
Precipitation  
Precipitation 0.00 in 0.05 in 0.78 in (1951)
Month to date precipitation 0.07 0.80  
Year to date precipitation 32.59 26.83  
Snow  
Snow 0.00 in 0.40 in 6.50 in (1997)
Month to date snowfall 1.4 2.9  
Since 1 July snowfall 2.1 3.3  
Since 1 September snowfall 2.1 3.3  
Snow Depth T in    
Sea Level Pressure  
Sea Level Pressure 30.18 in    
Wind  
Wind Speed 7 mph ()    
Max Wind Speed 17 mph    
Max Gust Speed 22 mph    
Visibility 9.9 miles    
Events      
T = Trace of Precipitation, MM = Missing Value Source: Averaged Metar Reports

Daily Weather History Graph

Daily Weather History Graph

Search for Another Location

Airport or City:

Astronomy

Nov. 14, 2019 Rise Set
Actual Time 7:16 AM CST 4:44 PM CST
Civil Twilight 6:43 AM CST 5:17 PM CST
Nautical Twilight 6:07 AM CST 5:53 PM CST
Astronomical Twilight 5:31 AM CST 6:29 PM CST
Moon 6:26 PM CST (11/14) 9:16 AM CST (11/14)
Length of Visible Light 10h 33m
Length of Day
9h 28m
Waning Gibbous, 95% of the Moon is Illuminated
Nov 14
Waning Gibbous
Nov 19
Last Quarter
Nov 26
New
Dec 4
First Quarter
Dec 11
Full

Hourly Weather History & Observations

Time (CST) Temp. Windchill Dew Point Humidity Pressure Visibility Wind Dir Wind Speed Gust Speed Precip Events Conditions
12:53 AM 21.0 °F 12.4 °F 10.0 °F 63% 30.17 in 9.0 mi NW 6.9 mph - N/A   Overcast
1:53 AM 21.0 °F 13.4 °F 10.0 °F 63% 30.19 in 10.0 mi NW 5.8 mph - N/A   Overcast
2:53 AM 19.9 °F 12.1 °F 10.0 °F 65% 30.20 in 10.0 mi NW 5.8 mph - N/A   Overcast
3:53 AM 19.9 °F 13.4 °F 10.0 °F 65% 30.20 in 10.0 mi West 4.6 mph - N/A   Overcast
4:53 AM 19.0 °F 8.2 °F 9.0 °F 65% 30.21 in 10.0 mi West 9.2 mph - 0.00 in   Overcast
5:37 AM 16.0 °F 8.8 °F 8.1 °F 71% 30.16 in 10.0 mi West 4.6 mph - N/A   Partly Cloudy
5:53 AM 16.0 °F 8.8 °F 8.1 °F 71% 30.23 in 10.0 mi West 4.6 mph - N/A   Clear
6:53 AM 12.0 °F 1.5 °F 6.1 °F 77% 30.22 in 10.0 mi WSW 6.9 mph - N/A   Clear
7:53 AM 12.9 °F 3.8 °F 7.0 °F 77% 30.25 in 9.0 mi West 5.8 mph - N/A   Clear
8:53 AM 16.0 °F 5.3 °F 9.0 °F 74% 30.26 in 10.0 mi WSW 8.1 mph - N/A   Clear
9:53 AM 19.0 °F 6.8 °F 9.0 °F 65% 30.24 in 10.0 mi WSW 11.5 mph - N/A   Clear
11:53 AM 27.0 °F 16.7 °F 12.9 °F 56% 30.19 in 10.0 mi SW 11.5 mph - N/A   Overcast
12:53 PM 28.9 °F 19.2 °F 14.0 °F 54% 30.17 in 10.0 mi SW 11.5 mph - N/A   Overcast
1:53 PM 30.9 °F 20.7 °F 15.1 °F 52% 30.14 in 10.0 mi SSW 13.8 mph - N/A   Overcast
2:53 PM 33.1 °F 23.9 °F 17.1 °F 52% 30.13 in 10.0 mi SW 12.7 mph - N/A   Partly Cloudy
3:53 PM 34.0 °F 24.6 °F 18.0 °F 52% 30.12 in 10.0 mi SW 13.8 mph - N/A   Clear
4:48 PM 32.0 °F 25.6 °F 19.4 °F 60% 30.08 in 10.0 mi SW 6.9 mph - N/A   Mostly Cloudy
4:53 PM 33.1 °F 25.5 °F 19.0 °F 56% 30.14 in 10.0 mi SW 9.2 mph - N/A   Mostly Cloudy
5:53 PM 34.0 °F 28.0 °F 21.0 °F 59% 30.16 in 10.0 mi SW 6.9 mph - N/A   Overcast
6:53 PM 34.0 °F 27.2 °F 21.0 °F 59% 30.15 in 10.0 mi SSW 8.1 mph - N/A   Overcast
7:53 PM 34.0 °F 28.0 °F 23.0 °F 64% 30.16 in 10.0 mi SW 6.9 mph - N/A   Overcast
8:53 PM 34.0 °F 28.0 °F 24.1 °F 67% 30.17 in 10.0 mi SW 6.9 mph - N/A   Overcast
9:53 PM 37.0 °F 31.0 °F 27.0 °F 67% 30.19 in 10.0 mi NNW 8.1 mph - N/A   Overcast
10:53 PM 37.0 °F 30.4 °F 28.0 °F 70% 30.21 in 10.0 mi North 9.2 mph - N/A   Overcast
11:53 PM 35.1 °F 26.4 °F 25.0 °F 67% 30.23 in 10.0 mi NNW 12.7 mph - N/A   Overcast